Regional Weather Roundup
Issued by NWS

Home | Current Version | Previous Version | Graphics & Text | Print | Product List | Glossary On
Versions: 1 2 3 4 5 6 7 8 9 10 11 12 13 14 15 16 17 18 19 20 21 22 23 24 25 26 27 28 29 30 31 32 33 34 35 36 37 38 39 40 41 42 43 44 45 46 47 48 49 50
609
ASUS43 KLOT 021808
RWRIL

ILLINOIS REGIONAL WEATHER ROUNDUP
NATIONAL WEATHER SERVICE CHICAGO/ROMEOVILLE IL
100 PM CDT MON MAY 02 2016

NOTE: "FAIR" INDICATES FEW OR NO CLOUDS BELOW 12,000 FEET WITH NO
SIGNIFICANT WEATHER AND/OR OBSTRUCTIONS TO VISIBILITY.

* THESE STATIONS ARE NOT UNDER NWS QUALITY CONTROL. THEY ALSO MAY NOT
  REPORT WEATHER SUCH AS PRECIPITATION OR FOG.

ILZ001-002-007-009-015-016-024-021900-
NORTHWEST ILLINOIS

CITY           SKY/WX    TMP DP  RH WIND       PRES   REMARKS
MOLINE         CLOUDY    59  41  51 E10       30.06F
6HR MIN TEMP:  49; 6HR MAX TEMP:  59;

STERLING*      MOSUNNY   59  43  55 E7        30.07F
SAVANNA*       MOSUNNY   59  38  45 NE3       30.07F
$$

ILZ003-004-008-010-011-017-018-021900-
NORTH CENTRAL ILLINOIS

CITY           SKY/WX    TMP DP  RH WIND       PRES   REMARKS
ROCKFORD       PTSUNNY   62  38  40 NE15      30.08S
6HR MIN TEMP:  48; 6HR MAX TEMP:  62;

FREEPORT*      MOSUNNY   57  39  51 NE12      30.09F
ROCHELLE*      MOSUNNY   59  42  53 E13G18    30.06F
DE KALB*       MOSUNNY   59  41  50 NE12      30.06S
$$

ILZ005-006-012>014-019>023-021900-
NORTHEAST ILLINOIS

CITY           SKY/WX    TMP DP  RH WIND       PRES   REMARKS
CHICAGO-OHARE  PTSUNNY   56  35  45 NE15      30.05S
6HR MIN TEMP:  45; 6HR MAX TEMP:  57;

CHICAGO-MIDWAY MOSUNNY   56  35  45 NE17G23   30.05S
6HR MIN TEMP:  47; 6HR MAX TEMP:  57;

AURORA         SUNNY     58  38  47 NE17      30.06S
6HR MIN TEMP:  47; 6HR MAX TEMP:  60;

LANSING*       SUNNY     52  41  64 N10G17    30.05S
JOLIET*        SUNNY     60  38  45 NE14G21   30.05R
WAUKEGAN       SUNNY     55  38  52 NE13      30.05F
6HR MIN TEMP:  44; 6HR MAX TEMP:  56;

DUPAGE AIRPORT SUNNY     58  36  43 NE18      30.04F
6HR MIN TEMP:  45; 6HR MAX TEMP:  58;

KANKAKEE*      PTSUNNY   57  43  61 NE10      30.05R
WHEELING       SUNNY     55  35  47 NE13G20   30.07R
6HR MIN TEMP:  45; 6HR MAX TEMP:  56;

MORRIS*        SUNNY     59  40  49 NE7       30.04S
ROMEOVILLE*    SUNNY     58  36  44 NE13G22   30.05S
NORTHERLY ISL    N/A     49  40  71 MISG        N/A
NORTHERLY ISL    N/A     49  40  71 MISG        N/A
$$

LMZ740>746-021900-
SOUTHERN LAKE MICHIGAN

STATION/POSITION SKY/WX   TEMP    WIND        PRES    VSBY  WAVE
                          AIR SEA DIR/SP/G                  HT/PER
                          (F)     (DEG/KT/KT) (MB)    (MI)  (FT/S)
SOUTHERN BUOY              41 41  360/  8/ 10 1017.8F         1/ 4
HARRISON CRIB              45     350/ 13/ 14   N/A
BURNHAM HARBOR             49     350/ 11/ 13   N/A
CALUMET HARBOR             47     340/ 11/ 15 1017.3R
BURNS HARBOR               45     360/ 12/ 16 1018.3R
MICHIGAN CITY              44     350/ 14/ 15   N/A
ST. JOSEPH                 46 48                N/A           3/ 4
$$

ILZ025>027-034>036-040-047-049-050-058-095>099-021900-
WEST-CENTRAL ILLINOIS

CITY           SKY/WX    TMP DP  RH WIND       PRES   REMARKS
QUINCY         CLOUDY    53  47  79 N10       30.07F
GALESBURG*     CLOUDY    53  45  74 N8        30.07F
MACOMB*        CLOUDY    53  45  76 N9        30.10S
JACKSONVILLE*  CLOUDY    54  47  77 N3        30.06F
PITTSFIELD*    CLOUDY    54  48  78 NW5       30.08S
$$

ILZ028>032-037-038-041>044-048-051>054-059>061-021900-
CENTRAL ILLINOIS

CITY           SKY/WX    TMP DP  RH WIND       PRES   REMARKS
PONTIAC        MOSUNNY   58  46  64 E12       30.05F
BLOOMINGTON    CLOUDY    54  47  77 NE9       30.06F
DECATUR        CLOUDY    54  47  77 NE9       30.04F
PEORIA         CLOUDY    55  43  63 NE6       30.06S
6HR MIN TEMP:  47; 6HR MAX TEMP:  56;

LACON*         CLOUDY    57  42  57 E3        30.05F
LINCOLN*       CLOUDY    53  47  79 NE3       30.06F
SPRINGFIELD    CLOUDY    52  46  80 NE7       30.07S
6HR MIN TEMP:  50; 6HR MAX TEMP:  54;

TAYLORVILLE    CLOUDY    50  46  87 N5        30.06S
$$

ILZ033-039-045-046-055>057-062-063-021900-
EAST-CENTRAL ILLINOIS

CITY           SKY/WX    TMP DP  RH WIND       PRES   REMARKS
CHAMPAIGN      CLOUDY    54  47  77 N7        30.03F
RANTOUL*       CLOUDY    57  48  72 NE9       30.03F
MATTOON        CLOUDY    52  47  83 N7        30.03S
PARIS*         CLOUDY    51  50  95 NW3       30.04S FOG
$$

ILZ079-100>102-021900-
SOUTHWEST ILLINOIS

CITY           SKY/WX    TMP DP  RH WIND       PRES   REMARKS
BELLEVILLE     PTSUNNY   55  50  85 N5        30.05F
CAHOKIA*       CLOUDY    56  47  71 N8        30.06F
SPARTA*        CLOUDY    55  47  74 CALM      30.06S
$$

ILZ064>066-069>071-074>076-080>082-084>086-088>090-092>094-021900-
SOUTH-CENTRAL ILLINOIS

CITY           SKY/WX    TMP DP  RH WIND       PRES   REMARKS
CARBONDALE     CLOUDY    60  47  61 NW7G16    30.04S
6HR MIN TEMP:  53; 6HR MAX TEMP:  60;

CAIRO*         CLOUDY    62  51  67 CALM      30.02S
EFFINGHAM*     CLOUDY    55  50  85 W6        30.05F
MARION         CLOUDY    59  50  72 NW6       30.04F
MT. VERNON     CLOUDY    57  48  72 W5        30.05F
CENTRALIA*     CLOUDY    54  51  90 N7        30.03F
SALEM*         CLOUDY    55  49  81 NW7       30.05F
METROPOLIS*    CLOUDY    64  52  66 CALM      30.01F
$$

ILZ067-068-072-073-078-083-087-091-021900-
SOUTHEAST ILLINOIS

CITY           SKY/WX    TMP DP  RH WIND       PRES   REMARKS
LAWRENCEVILLE  CLOUDY    56  49  77 NW9       30.03S
FLORA*         CLOUDY    57  49  73 NW7       30.04F
FAIRFIELD*     CLOUDY    56  50  80 NW3       30.03S
HARRISBURG*    CLOUDY    61  51  69 W6        30.04S
ROBINSON*      CLOUDY    55  49  81 NW5       30.03F
CARMI*         CLOUDY    60  52  75 NW7       30.02S
$$

ABBREVIATIONS USED IN REMARKS
   TC - TEMPERATURE IN CELSIUS
  WCI - WIND CHILL INDEX
   HX - HEAT INDEX
  VSB - VISIBILITY
$$





USA.gov is the U.S. government's official web portal to all federal, state and local government web resources and services.